This is the latest recevied weather packets stored in our database for station/object W7TTE. If no packets are shown the sender has not sent any weather packets the latest 10 day(s).
| Time | Temp. | Humidity | Pressure | Rain* | Wind** | Luminosity | Snow |
|---|---|---|---|---|---|---|---|
| 1777731490 | 21.67° C | 28% | 1015.4 hPa | 0 mm | - | 150 W/m² | - |
| 1777731189 | 21.11° C | 27% | 1015.4 hPa | 0 mm | - | 137 W/m² | - |
| 1777730886 | 20° C | 30% | 1015.4 hPa | 0 mm | - | 124 W/m² | - |
| 1777730584 | 20° C | 30% | 1015.3 hPa | 0 mm | - | 57 W/m² | - |
| 1777730280 | 19.44° C | 31% | 1015.3 hPa | 0 mm | - | 39 W/m² | - |
| 1777729976 | 19.44° C | 30% | 1015 hPa | 0 mm | - | 38 W/m² | - |
| 1777729066 | 18.33° C | 31% | 1014.8 hPa | 0 mm | - | 32 W/m² | - |
| 1777728763 | 18.33° C | 31% | 1014.8 hPa | 0 mm | - | 30 W/m² | - |
| 1777728459 | 18.33° C | 32% | 1014.7 hPa | 0 mm | - | 28 W/m² | - |
| 1777728157 | 18.33° C | 30% | 1014.5 hPa | 0 mm | - | 26 W/m² | - |
| 1777727853 | 17.78° C | 30% | 1014.7 hPa | 0 mm | - | 23 W/m² | - |
| 1777727551 | 17.78° C | 36% | 1014.4 hPa | 0 mm | - | 21 W/m² | - |
| 1777727248 | 17.78° C | 35% | 1014.3 hPa | 0 mm | - | 18 W/m² | - |
| 1777726036 | 17.78° C | 31% | 1014.2 hPa | 0 mm | - | 6 W/m² | - |
| 1777725733 | 17.78° C | 33% | 1014.1 hPa | 0 mm | - | 3 W/m² | - |
| 1777725431 | 17.78° C | 32% | 1014.1 hPa | 0 mm | - | 2 W/m² | - |
| 1777725128 | 17.78° C | 33% | 1014.1 hPa | 0 mm | - | 1 W/m² | - |
| 1777724824 | 18.33° C | 34% | 1013.9 hPa | 0 mm | - | 0 W/m² | - |
| 1777724521 | 18.33° C | 31% | 1013.7 hPa | 0 mm | - | 0 W/m² | - |
| 1777724219 | 18.33° C | 31% | 1013.7 hPa | 0 mm | - | 0 W/m² | - |
| 1777723917 | 18.33° C | 32% | 1013.7 hPa | 0 mm | - | 0 W/m² | - |
| 1777723310 | 18.89° C | 34% | 1013.7 hPa | 0 mm | - | 0 W/m² | - |
| 1777722703 | 18.89° C | 33% | 1013.5 hPa | 0 mm | - | 0 W/m² | - |
| 1777722399 | 18.89° C | 28% | 1013.5 hPa | 0 mm | - | 0 W/m² | - |
| 1777722097 | 18.89° C | 30% | 1013.4 hPa | 0 mm | - | 0 W/m² | - |
* Rain latest hour (hover to see other rain measurements)
** Current wind speed in m/s (hover to see current wind gust speed)